• In Germany
  • List of Countries
  • For 7 days
  • Water Temperature
  • Satellite Maps
  • Weather Map
  • Weather Widgets
  • user-avatar
    Login

    Hourly Weather Brisbane

    Today, 31 March, Friday

    Time Temperature Precipitation Wind Pressure Humidity
    00:00 +23°C° 0.2 mm 10 mps 749 mmHg 82%
    01:00 +22°C° 0.2 mm 10 mps 748 mmHg 77%
    02:00 +22°C° 0.1 mm 10 mps 749 mmHg 77%
    03:00 +22°C° 0.1 mm 10 mps 749 mmHg 77%
    04:00 +23°C° 0 mm 11 mps 749 mmHg 78%
    05:00 +22°C° 0.4 mm 10 mps 750 mmHg 79%
    06:00 +21°C° 0.4 mm 9 mps 751 mmHg 80%
    07:00 +21°C° 0.4 mm 8 mps 752 mmHg 80%
    08:00 +22°C° 0 mm 8 mps 752 mmHg 77%
    09:00 +23°C° 0 mm 8 mps 753 mmHg 73%
    10:00 +26°C° 0 mm 8 mps 753 mmHg 70%
    11:00 +27°C° 0 mm 8 mps 753 mmHg 67%
    12:00 +27°C° 0 mm 8 mps 754 mmHg 65%
    13:00 +28°C° 0 mm 7 mps 754 mmHg 63%
    14:00 +28°C° 0 mm 7 mps 754 mmHg 65%
    15:00 +27°C° 0 mm 7 mps 754 mmHg 67%
    16:00 +27°C° 0 mm 7 mps 755 mmHg 69%
    17:00 +24°C° 0 mm 7 mps 755 mmHg 69%
    18:00 +23°C° 0 mm 7 mps 756 mmHg 69%
    19:00 +22°C° 0 mm 7 mps 756 mmHg 69%
    20:00 +22°C° 0 mm 7 mps 757 mmHg 69%
    21:00 +21°C° 0 mm 7 mps 757 mmHg 69%
    22:00 +20°C° 0 mm 7 mps 758 mmHg 68%
    23:00 +20°C° 0 mm 6 mps 757 mmHg 69%

    Tomorrow, 1 April, Saturday

    Time Temperature Precipitation Wind Pressure Humidity
    00:00 +19°C° 0 mm 6 mps 757 mmHg 70%
    01:00 +19°C° 0 mm 6 mps 757 mmHg 71%
    02:00 +19°C° 0 mm 5 mps 757 mmHg 74%
    03:00 +17°C° 0 mm 5 mps 757 mmHg 76%
    04:00 +17°C° 0 mm 5 mps 757 mmHg 78%
    05:00 +17°C° 0 mm 5 mps 757 mmHg 79%
    06:00 +17°C° 0 mm 5 mps 758 mmHg 80%
    07:00 +18°C° 0 mm 4 mps 758 mmHg 81%
    08:00 +20°C° 0 mm 4 mps 758 mmHg 76%
    09:00 +22°C° 0 mm 4 mps 758 mmHg 70%
    10:00 +25°C° 0 mm 4 mps 759 mmHg 65%
    11:00 +26°C° 0 mm 4 mps 758 mmHg 60%
    12:00 +27°C° 0 mm 4 mps 758 mmHg 56%
    13:00 +28°C° 0 mm 4 mps 757 mmHg 51%
    14:00 +28°C° 0 mm 4 mps 757 mmHg 54%
    15:00 +28°C° 0 mm 4 mps 757 mmHg 56%
    16:00 +28°C° 0 mm 4 mps 757 mmHg 59%
    17:00 +26°C° 0 mm 5 mps 757 mmHg 66%
    18:00 +25°C° 0 mm 5 mps 758 mmHg 74%
    19:00 +22°C° 0 mm 6 mps 758 mmHg 81%
    20:00 +21°C° 0 mm 6 mps 759 mmHg 81%
    21:00 +21°C° 0 mm 6 mps 759 mmHg 81%
    22:00 +20°C° 0 mm 6 mps 760 mmHg 81%
    23:00 +20°C° 0 mm 6 mps 760 mmHg 81%

    Day after tomorrow, 2 April, Sunday

    Time Temperature Precipitation Wind Pressure Humidity
    00:00 +19°C° 0 mm 6 mps 760 mmHg 82%
    01:00 +19°C° 0 mm 6 mps 759 mmHg 82%
    02:00 +19°C° 0 mm 6 mps 759 mmHg 83%
    03:00 +19°C° 0 mm 6 mps 759 mmHg 83%
    04:00 +17°C° 0 mm 6 mps 759 mmHg 84%
    05:00 +19°C° 0 mm 6 mps 760 mmHg 84%
    06:00 +19°C° 0 mm 6 mps 760 mmHg 84%
    07:00 +19°C° 0 mm 6 mps 761 mmHg 84%
    08:00 +21°C° 0 mm 7 mps 761 mmHg 78%
    09:00 +23°C° 0 mm 7 mps 761 mmHg 73%
    10:00 +26°C° 0 mm 8 mps 762 mmHg 67%
    11:00 +26°C° 0 mm 8 mps 761 mmHg 66%
    12:00 +27°C° 0 mm 8 mps 761 mmHg 64%
    13:00 +27°C° 0 mm 8 mps 760 mmHg 63%
    14:00 +27°C° 0 mm 8 mps 760 mmHg 65%
    15:00 +27°C° 0 mm 8 mps 760 mmHg 66%
    16:00 +26°C° 0 mm 8 mps 760 mmHg 68%
    17:00 +24°C° 0.1 mm 7 mps 761 mmHg 72%
    18:00 +23°C° 0.1 mm 7 mps 762 mmHg 75%
    19:00 +21°C° 0.1 mm 7 mps 762 mmHg 79%
    20:00 +21°C° 0.1 mm 7 mps 763 mmHg 79%
    21:00 +20°C° 0.1 mm 8 mps 763 mmHg 78%
    22:00 +20°C° 0.1 mm 8 mps 763 mmHg 78%
    23:00 +20°C° 0.1 mm 7 mps 763 mmHg 78%

    3 April, Monday

    Time Temperature Precipitation Wind Pressure Humidity
    00:00 +18°C° 0.1 mm 7 mps 763 mmHg 79%
    01:00 +18°C° 0.1 mm 7 mps 762 mmHg 79%
    02:00 +18°C° 0 mm 7 mps 762 mmHg 79%
    03:00 +17°C° 0 mm 7 mps 762 mmHg 80%
    04:00 +17°C° 0 mm 7 mps 762 mmHg 80%
    05:00 +17°C° 0 mm 7 mps 762 mmHg 81%
    06:00 +17°C° 0 mm 7 mps 763 mmHg 81%
    07:00 +17°C° 0 mm 7 mps 763 mmHg 81%
    08:00 +20°C° 0 mm 7 mps 763 mmHg 77%
    09:00 +22°C° 0 mm 7 mps 764 mmHg 72%
    10:00 +23°C° 0 mm 8 mps 764 mmHg 67%
    11:00 +24°C° 0 mm 8 mps 763 mmHg 66%
    12:00 +24°C° 0 mm 8 mps 763 mmHg 64%
    13:00 +26°C° 0 mm 8 mps 762 mmHg 63%
    14:00 +26°C° 0.1 mm 8 mps 762 mmHg 64%
    15:00 +24°C° 0.1 mm 8 mps 762 mmHg 65%
    16:00 +24°C° 0.1 mm 8 mps 762 mmHg 67%
    17:00 +23°C° 0 mm 8 mps 762 mmHg 70%
    18:00 +21°C° 0 mm 7 mps 763 mmHg 73%
    19:00 +20°C° 0 mm 7 mps 763 mmHg 76%
    20:00 +20°C° 0 mm 7 mps 764 mmHg 77%
    21:00 +18°C° 0 mm 7 mps 764 mmHg 77%
    22:00 +18°C° 0 mm 7 mps 764 mmHg 78%
    23:00 +17°C° 0 mm 7 mps 764 mmHg 79%

    4 April, Tuesday

    Time Temperature Precipitation Wind Pressure Humidity
    00:00 +17°C° 0 mm 7 mps 763 mmHg 79%
    01:00 +17°C° 0 mm 7 mps 763 mmHg 80%
    02:00 +16°C° 0 mm 7 mps 763 mmHg 80%
    03:00 +16°C° 0 mm 7 mps 763 mmHg 80%
    04:00 +16°C° 0 mm 7 mps 763 mmHg 80%
    05:00 +16°C° 0 mm 7 mps 763 mmHg 81%
    06:00 +16°C° 0 mm 7 mps 764 mmHg 81%
    07:00 +16°C° 0 mm 7 mps 764 mmHg 81%
    08:00 +18°C° 0 mm 7 mps 764 mmHg 77%
    09:00 +20°C° 0 mm 7 mps 764 mmHg 72%
    10:00 +22°C° 0 mm 8 mps 764 mmHg 68%
    11:00 +23°C° 0 mm 8 mps 764 mmHg 66%
    12:00 +24°C° 0 mm 8 mps 763 mmHg 64%
    13:00 +24°C° 0 mm 8 mps 763 mmHg 61%
    14:00 +24°C° 0 mm 8 mps 763 mmHg 63%
    15:00 +24°C° 0 mm 8 mps 762 mmHg 64%
    16:00 +23°C° 0 mm 8 mps 762 mmHg 65%
    17:00 +22°C° 0.1 mm 7 mps 763 mmHg 69%
    18:00 +21°C° 0.1 mm 7 mps 763 mmHg 72%
    19:00 +19°C° 0.1 mm 6 mps 764 mmHg 76%
    20:00 +19°C° 0.1 mm 6 mps 764 mmHg 76%
    21:00 +19°C° 0.1 mm 6 mps 764 mmHg 77%
    22:00 +17°C° 0.1 mm 6 mps 764 mmHg 78%
    23:00 +17°C° 0 mm 6 mps 764 mmHg 79%

    5 April, Wednesday

    Time Temperature Precipitation Wind Pressure Humidity
    00:00 +16°C° 0 mm 6 mps 763 mmHg 80%
    01:00 +16°C° 0 mm 6 mps 763 mmHg 81%
    02:00 +16°C° 0.1 mm 6 mps 763 mmHg 82%
    03:00 +16°C° 0.1 mm 6 mps 763 mmHg 83%
    04:00 +15°C° 0.1 mm 6 mps 763 mmHg 84%
    05:00 +16°C° 0.1 mm 6 mps 763 mmHg 84%
    06:00 +16°C° 0.1 mm 6 mps 764 mmHg 84%
    07:00 +16°C° 0.1 mm 6 mps 764 mmHg 83%
    08:00 +19°C° 0.1 mm 6 mps 764 mmHg 78%
    09:00 +21°C° 0.1 mm 6 mps 764 mmHg 72%
    10:00 +23°C° 0.1 mm 6 mps 764 mmHg 67%
    11:00 +24°C° 0.1 mm 6 mps 763 mmHg 65%
    12:00 +24°C° 0.1 mm 6 mps 763 mmHg 64%
    13:00 +26°C° 0.1 mm 7 mps 762 mmHg 62%
    14:00 +26°C° 0.1 mm 6 mps 762 mmHg 64%
    15:00 +24°C° 0.1 mm 6 mps 762 mmHg 66%
    16:00 +24°C° 0.1 mm 6 mps 762 mmHg 68%
    17:00 +22°C° 0.1 mm 6 mps 762 mmHg 73%
    18:00 +21°C° 0.1 mm 5 mps 762 mmHg 78%
    19:00 +19°C° 0.1 mm 5 mps 763 mmHg 84%
    20:00 +19°C° 0.2 mm 5 mps 763 mmHg 85%
    21:00 +19°C° 0.2 mm 4 mps 763 mmHg 87%
    22:00 +18°C° 0.2 mm 4 mps 764 mmHg 88%
    23:00 +18°C° 0.2 mm 4 mps 763 mmHg 89%
    Show more